TimeCST,TemperatureF,Dew PointF,Humidity,Sea Level PressureIn,VisibilityMPH,Wind Direction,Wind SpeedMPH,Gust SpeedMPH,PrecipitationIn,Events,Conditions,WindDirDegrees,DateUTC
6:00 AM,76,68,70,29.86,12,Calm,Calm,,,,Scattered Clouds,,2012-11-11 12:00:00
6:00 AM,77.0,68.0,74,29.84,6.2,Calm,Calm,-,N/A,,Scattered Clouds,0,2012-11-11 12:00:00
7:00 AM,78.8,69.8,74,29.86,6.2,ESE,5.8,-,N/A,,Scattered Clouds,120,2012-11-11 13:00:00
8:00 AM,82.4,68.0,62,29.89,6.2,NE,13.8,-,N/A,,Scattered Clouds,50,2012-11-11 14:00:00
9:00 AM,82,70,58,29.91,12,ENE,15.0,,,,Scattered Clouds,70,2012-11-11 15:00:00
9:00 AM,82.4,69.8,66,29.89,6.2,ENE,15.0,-,N/A,,Scattered Clouds,70,2012-11-11 15:00:00
10:00 AM,86.0,69.8,58,29.88,-9999.0,ENE,15.0,-,N/A,,Clear,70,2012-11-11 16:00:00
11:00 AM,87.8,71.6,58,29.86,-9999.0,East,15.0,-,N/A,,Clear,80,2012-11-11 17:00:00
12:00 PM,89,69,42,29.86,12,ENE,17.3,,,,Scattered Clouds,70,2012-11-11 18:00:00
12:00 PM,87.8,68.0,52,29.84,6.2,ENE,17.3,-,N/A,,Scattered Clouds,70,2012-11-11 18:00:00
1:00 PM,89.6,69.8,52,29.81,6.2,ENE,15.0,-,N/A,,Scattered Clouds,60,2012-11-11 19:00:00
2:00 PM,89.6,68.0,49,29.79,6.2,ENE,12.7,-,N/A,,Scattered Clouds,60,2012-11-11 20:00:00
3:00 PM,88,69,45,29.80,12,ENE,11.5,,,,Partly Cloudy,70,2012-11-11 21:00:00
3:00 PM,87.8,69.8,55,29.78,6.2,ENE,11.5,-,N/A,,Scattered Clouds,70,2012-11-11 21:00:00
4:00 PM,87.8,69.8,55,29.79,6.2,NE,12.7,-,N/A,,Scattered Clouds,40,2012-11-11 22:00:00
5:00 PM,84.2,69.8,62,29.81,6.2,NE,10.4,-,N/A,,Scattered Clouds,40,2012-11-11 23:00:00
6:00 PM,80,69,62,29.84,12,NE,8.1,,,,Scattered Clouds,50,2012-11-12 00:00:00
6:00 PM,80.6,69.8,70,29.83,6.2,NE,8.1,-,N/A,,Scattered Clouds,50,2012-11-12 00:00:00
7:00 PM,78.8,69.8,74,29.86,6.2,East,5.8,-,N/A,,Mostly Cloudy,90,2012-11-12 01:00:00
8:00 PM,77.0,69.8,78,29.90,6.2,Calm,Calm,-,N/A,,Scattered Clouds,0,2012-11-12 02:00:00